Regional Weather Roundup
Issued by NWS

Home | Current Version | Previous Version | Graphics & Text | Print | Product List | Glossary On
Versions: 1 2 3 4 5 6 7 8 9 10 11 12 13 14 15 16 17 18 19 20 21 22 23 24 25 26 27 28 29 30 31 32 33 34 35 36 37 38 39 40 41 42 43 44 45 46 47 48 49 50
000
ASUS43 KOAX 252202
RWRNE

WEATHER ROUNDUP FOR NEBRASKA
NATIONAL WEATHER SERVICE OMAHA NE
500 PM CDT SAT APR 25 2015

NOTES: SATELLITE DATA IS BEING USED TO AUGMENT CLOUD COVER ABOVE
       12000 FEET.
       "FAIR" INDICATES FEW OR NO CLOUDS BELOW 12,000 FEET WITH NO
       SIGNIFICANT WEATHER AND/OR OBSTRUCTIONS TO VISIBILITY.

  * THESE STATIONS DO NOT REPORT WEATHER SUCH AS RAIN...SNOW OR FOG.

NEZ001>004-019>022-054>056-252300-
NEBRASKA PANHANDLE

CITY           SKY/WX    TMP DP  RH WIND       PRES   REMARKS
SCOTTSBLUFF    LGT RAIN  60  42  51 S18G32    29.69R
ALLIANCE       PTSUNNY   65  43  44 S14G23    29.68R
CHADRON        TSTM      61  49  64 N6        29.64S
KIMBALL        LGT RAIN  58  42  54 N8        29.71R
SIDNEY         CLOUDY    61  40  45 NW10      29.71R THUNDER
$$

NEZ057>060-069>072-079>082-252300-
SOUTHWEST NEBRASKA

CITY           SKY/WX    TMP DP  RH WIND       PRES   REMARKS
IMPERIAL       SUNNY     70  44  39 E9        29.68S
MCCOOK         MOSUNNY   72  47  40 NE12G17   29.68S
$$

NEZ005>010-023>029-035>040-094-252300-
NORTH CENTRAL NEBRASKA

CITY           SKY/WX    TMP DP  RH WIND       PRES   REMARKS
VALENTINE      CLOUDY    60  46  59 E9        29.75R
AINSWORTH      CLOUDY    56  47  72 SE14      29.77R
BROKEN BOW     CLOUDY    55  47  74 E12       29.76R
ORD            CLOUDY    56  46  69 E7        29.75R
$$

NEZ041-046>049-061>064-073>077-083>087-252300-
SOUTH CENTRAL NEBRASKA

CITY           SKY/WX    TMP DP  RH WIND       PRES   REMARKS
GRAND ISLAND   CLOUDY    49  46  90 NE10      29.76R FOG
AURORA         CLOUDY    49  49 100 NE13      29.75R FOG
HASTINGS       CLOUDY    50  47  89 NE12      29.74R FOG
KEARNEY *      CLOUDY    54  46  76 NE14      29.76R
YORK           CLOUDY    50  48  93 NE8       29.75R
$$

NEZ011>018-030>034-042>045-252300-
NORTHEAST NEBRASKA

CITY           SKY/WX    TMP DP  RH WIND       PRES   REMARKS
NORFOLK        PTSUNNY   58  45  62 E17       29.75S
BLAIR          CLOUDY    51  44  78 NE13G22   29.73R
COLUMBUS *     CLOUDY    52  43  71 NE10      29.78R
TEKAMAH        CLOUDY    56  46  69 NE16      29.75R
$$

NEZ050>053-065>068-078-088>093-252300-
SOUTHEAST NEBRASKA

CITY           SKY/WX    TMP DP  RH WIND       PRES   REMARKS
LINCOLN        CLOUDY    53  47  79 NE14      29.75R
OMAHA EPPLEY   CLOUDY    52  46  80 NE18      29.73R
FALLS CITY     CLOUDY    51  47  86 N14       29.69R
NEBRASKA CITY  CLOUDY    50  47  90 NE13      29.72R
PLATTSMOUTH    CLOUDY    50  46  84 NE13      29.72R
$$

NEZ044-045-051>053-067-252300-
OMAHA AREA

CITY           SKY/WX    TMP DP  RH WIND       PRES   REMARKS
OMAHA EPPLEY   CLOUDY    52  46  80 NE18      29.73R
BLAIR          CLOUDY    51  44  78 NE13G22   29.73R
OFFUTT AFB     CLOUDY    52  47  82 NE10      29.72R
PLATTSMOUTH    CLOUDY    50  46  84 NE13      29.72R
WAHOO          CLOUDY    53  46  76 NE14      29.75R
$$


USA.gov is the U.S. government's official web portal to all federal, state and local government web resources and services.